CW0566 Weather Reports


Display with metric or nautical units.
time (UTC)temp
F
wind
direction
speed
MPH
gust
MPH
rain 1hr
in
rain 24hr
in
rain mn
in
humidity
%
barometer
mb
20260903013516 72 0.0 2.0 0.00 0.07 0.06 96 1018.0
20260903012517 72 0.0 2.0 0.00 0.07 0.06 95 1018.2
20260903011516 72 0.0 1.0 0.00 0.07 0.06 95 1018.1
20260903010517 73 158 1.0 3.0 0.00 0.15 0.06 95 1017.8
20260903005537 73 0.0 2.0 0.00 0.31 0.06 95 1017.9
20260903004516 73 180 1.0 2.0 0.00 0.32 0.06 95 1018.0
20260903003517 73 180 1.0 3.0 0.00 0.32 0.06 94 1017.9
20260903002516 73 180 1.0 3.0 0.00 0.33 0.06 94 1018.0
20260903001537 73 180 1.0 4.0 0.00 0.33 0.06 94 1017.7
20260903000517 74 180 1.0 4.0 0.00 0.33 0.06 94 1017.8
20260902235517 74 0.0 2.0 0.00 0.33 0.06 94 1017.7
20260902234517 74 180 1.0 2.0 0.00 0.33 0.06 94 1017.5
20260902233516 74 0.0 3.0 0.00 0.33 0.06 94 1017.6
20260902232516 74 0.0 2.0 0.00 0.33 0.06 93 1017.6
20260902231516 74 180 1.0 2.0 0.00 0.33 0.06 93 1017.5
20260902230516 74 180 1.0 2.0 0.00 0.33 0.06 93 1017.7
20260902225516 75 180 1.0 3.0 0.00 0.33 0.06 93 1017.7
20260902224517 75 0.0 2.0 0.00 0.33 0.06 92 1017.9
20260902223516 75 0.0 2.0 0.00 0.33 0.06 92 1017.9
20260902222516 75 180 1.0 3.0 0.00 0.33 0.06 92 1018.2
20260902221516 75 180 1.0 2.0 0.00 0.33 0.06 92 1018.4
20260902220516 75 158 1.0 4.0 0.00 0.33 0.06 93 1018.0
20260902215556 75 113 2.0 6.0 0.00 0.33 0.06 93 1017.8
20260902214517 75 180 1.0 2.0 0.00 0.33 0.06 93 1017.8
20260902213516 76 180 1.0 3.0 0.00 0.33 0.06 93 1017.7
20260902212516 75 158 2.0 5.0 0.00 0.33 0.06 93 1017.7
20260902211516 76 158 1.0 4.0 0.00 0.33 0.06 93 1017.7
20260902210517 76 158 2.0 5.0 0.00 0.33 0.06 93 1017.7
20260902205516 76 158 2.0 5.0 0.00 0.33 0.06 94 1018.1
20260902204516 76 158 2.0 4.0 0.00 0.33 0.06 95 1018.1
20260902203536 75 135 3.0 5.0 0.00 0.33 0.06 95 1017.9
20260902202516 75 135 1.0 3.0 0.00 0.33 0.06 96 1017.7
20260902201516 75 158 3.0 7.0 0.00 0.33 0.06 95 1017.8
20260902200516 75 158 1.0 4.0 0.00 0.33 0.06 96 1017.8
20260902195516 75 158 2.0 4.0 0.01 0.33 0.06 96 1017.9
20260902194536 75 180 2.0 4.0 0.01 0.33 0.06 96 1018.2
20260902193516 75 203 2.0 4.0 0.01 0.33 0.06 96 1018.0
20260902192537 75 203 1.0 2.0 0.03 0.33 0.06 96 1018.1
20260902191516 75 203 1.0 3.0 0.05 0.33 0.06 95 1018.0
20260902190516 75 203 1.0 3.0 0.06 0.33 0.06 95 1018.3
20260902185536 75 0.0 1.0 0.05 0.32 0.05 94 1018.7
20260902184516 75 0.0 2.0 0.05 0.32 0.05 94 1018.5
20260902183536 75 203 1.0 3.0 0.05 0.32 0.05 93 1017.9
20260902182516 76 0.0 2.0 0.03 0.30 0.03 93 1018.5
20260902181516 76 0.0 2.0 0.01 0.28 0.01 92 1019.1
20260902180516 76 0.0 1.0 0.00 0.27 0.00 91 1019.5
20260902175516 76 0.0 1.0 0.00 0.27 0.00 90 1019.6
20260902174515 76 0.0 1.0 0.00 0.27 0.00 90 1019.8
20260902173536 76 113 1.0 2.0 0.00 0.27 0.00 90 1019.7
20260902172536 76 0.0 2.0 0.00 0.27 0.00 91 1020.0
20260902171516 76 0.0 2.0 0.00 0.27 0.00 91 1019.9
20260902170516 76 113 1.0 3.0 0.00 0.27 0.00 91 1020.0
20260902165536 76 135 1.0 4.0 0.00 0.27 0.00 91 1019.9
20260902164516 76 135 2.0 4.0 0.00 0.27 0.00 91 1019.5
20260902163536 76 135 2.0 6.0 0.00 0.27 0.00 91 1019.4
20260902162515 76 113 3.0 7.0 0.00 0.27 0.00 91 1019.6
20260902161515 76 135 4.0 9.0 0.00 0.27 0.00 90 1019.5
20260902160515 77 158 3.0 8.0 0.00 0.27 0.00 90 1019.4
20260902155515 77 113 2.0 4.0 0.00 0.27 0.00 91 1019.5
20260902154515 76 135 4.0 8.0 0.00 0.27 0.00 91 1019.5
20260902153516 76 135 3.0 7.0 0.00 0.27 0.00 93 1019.5
20260902152515 75 113 2.0 7.0 0.00 0.27 0.00 93 1019.6
20260902151515 74 135 2.0 6.0 0.00 0.27 0.00 94 1019.6
20260902150516 75 158 2.0 5.0 0.00 0.27 0.00 94 1019.7
20260902145535 75 135 3.0 9.0 0.00 0.27 0.00 94 1019.8
20260902144515 74 113 2.0 5.0 0.00 0.27 0.00 96 1019.6
20260902143517 74 135 2.0 6.0 0.00 0.27 0.00 96 1019.4
20260902142537 73 135 3.0 5.0 0.00 0.27 0.00 97 1019.4
20260902141518 73 135 1.0 4.0 0.00 0.27 0.00 97 1019.5
20260902140518 73 135 1.0 3.0 0.00 0.27 0.00 97 1019.5
20260902135517 72 135 1.0 3.0 0.00 0.27 0.00 98 1019.6
20260902134517 72 158 1.0 4.0 0.00 0.27 0.00 98 1019.4
20260902133517 72 158 1.0 3.0 0.00 0.27 0.00 98 1019.2
20260902132518 72 135 1.0 2.0 0.00 0.27 0.00 98 1019.2
20260902131517 72 135 1.0 4.0 0.00 0.27 0.00 98 1019.1
20260902130517 72 0.0 2.0 0.00 0.27 0.00 98 1019.2
20260902125538 71 113 2.0 5.0 0.00 0.27 0.00 98 1019.0
20260902124518 71 158 2.0 4.0 0.00 0.27 0.00 98 1019.0
20260902123517 71 135 2.0 5.0 0.00 0.27 0.00 98 1019.0
20260902122518 71 113 2.0 9.0 0.00 0.27 0.00 98 1018.8
20260902121517 71 113 2.0 6.0 0.00 0.27 0.00 98 1018.6
20260902120517 71 135 2.0 5.0 0.00 0.27 0.00 98 1018.6
20260902115517 71 113 2.0 6.0 0.00 0.27 0.00 98 1018.6
20260902114517 71 90 2.0 4.0 0.00 0.27 0.00 98 1018.7
20260902113517 71 90 1.0 3.0 0.00 0.27 0.00 98 1018.7
20260902112517 71 90 1.0 4.0 0.00 0.27 0.00 98 1018.7
20260902111517 71 90 1.0 3.0 0.00 0.27 0.00 98 1018.6
20260902110517 71 113 1.0 2.0 0.00 0.27 0.00 98 1018.5
20260902105517 71 113 1.0 5.0 0.00 0.27 0.00 98 1018.6
20260902104517 71 0.0 2.0 0.00 0.27 0.00 98 1018.4
20260902103517 71 158 3.0 6.0 0.00 0.27 0.00 98 1018.3
20260902102517 71 113 1.0 2.0 0.00 0.27 0.00 98 1018.3
20260902101517 71 113 2.0 5.0 0.00 0.27 0.00 98 1018.3
20260902100517 71 90 1.0 3.0 0.00 0.27 0.00 98 1018.3
20260902095537 71 90 2.0 4.0 0.00 0.27 0.00 98 1018.2
20260902094518 71 113 1.0 2.0 0.00 0.27 0.00 98 1018.0
20260902093517 71 135 1.0 4.0 0.00 0.27 0.00 98 1018.0
20260902092557 71 135 2.0 6.0 0.00 0.27 0.00 98 1017.9
20260902091517 72 90 1.0 3.0 0.00 0.27 0.00 98 1017.9
20260902090517 72 135 1.0 4.0 0.00 0.27 0.00 98 1017.7
20260902085516 72 135 1.0 3.0 0.00 0.27 0.00 98 1017.8
20260902084516 72 135 1.0 5.0 0.00 0.27 0.00 98 1017.7
20260902083537 72 135 1.0 3.0 0.00 0.27 0.00 98 1017.7
20260902082517 72 135 1.0 3.0 0.00 0.27 0.00 98 1017.6
20260902081537 72 0.0 2.0 0.00 0.27 0.00 98 1017.5
20260902080517 72 113 1.0 4.0 0.00 0.27 0.00 98 1017.4
20260902075517 72 113 1.0 4.0 0.00 0.27 0.00 98 1017.3
20260902074516 72 113 1.0 2.0 0.00 0.27 0.00 98 1017.3
20260902073537 72 113 2.0 5.0 0.00 0.27 0.00 98 1017.2
20260902072517 72 0.0 3.0 0.00 0.27 0.00 98 1017.3
20260902071517 72 0.0 3.0 0.00 0.27 0.00 98 1017.1
20260902070516 72 0.0 1.0 0.00 0.27 0.00 98 1017.2
20260902065516 72 0.0 0.0 0.00 0.27 0.00 98 1017.0
20260902064516 71 0.0 1.0 0.00 0.27 0.00 98 1016.7
20260902063516 71 0.0 1.0 0.00 0.27 0.00 98 1016.7
20260902062516 72 0.0 1.0 0.00 0.27 0.00 97 1016.6
20260902061516 72 0.0 1.0 0.00 0.27 0.00 98 1016.8
20260902060516 72 0.0 0.0 0.00 0.27 0.00 98 1016.9
20260902055516 72 0.0 1.0 0.00 0.27 0.00 98 1017.0
20260902054537 72 0.0 1.0 0.00 0.27 0.00 97 1016.8
20260902053516 72 0.0 1.0 0.00 0.27 0.00 97 1016.9
20260902052517 72 0.0 0.0 0.00 0.27 0.00 97 1017.1
20260902051516 72 0.0 0.0 0.00 0.27 0.00 98 1017.1
20260902050516 72 0.0 2.0 0.00 0.27 0.00 97 1016.9
20260902045517 72 0.0 1.0 0.00 0.27 0.00 97 1016.8
20260902044516 72 0.0 1.0 0.00 0.27 0.00 97 1016.5
20260902043516 72 0.0 0.0 0.00 0.27 0.00 97 1016.8
20260902042516 72 0.0 1.0 0.00 0.27 0.00 97 1017.1
20260902041516 72 0.0 1.0 0.00 0.27 0.00 97 1016.8
20260902040516 72 0.0 1.0 0.00 0.27 0.00 97 1016.9
20260902035517 71 0.0 1.0 0.01 0.27 0.27 97 1016.9
20260902034517 71 0.0 2.0 0.01 0.27 0.27 97 1016.6
20260902033517 71 0.0 1.0 0.01 0.27 0.27 97 1016.3
20260902032517 71 68 1.0 3.0 0.01 0.27 0.27 97 1016.4
20260902031516 71 0.0 1.0 0.01 0.27 0.27 96 1016.5
20260902030517 71 68 1.0 2.0 0.01 0.27 0.27 96 1016.0
20260902025517 71 0.0 2.0 0.00 0.26 0.26 96 1015.8
20260902024517 71 113 1.0 2.0 0.00 0.26 0.26 96 1015.7
20260902023516 71 0.0 1.0 0.00 0.26 0.26 96 1016.2
20260902022516 71 113 2.0 6.0 0.00 0.26 0.26 96 1015.8
20260902021516 71 248 1.0 3.0 0.00 0.26 0.26 95 1015.7
20260902020517 71 0.0 1.0 0.08 0.26 0.26 94 1015.1
20260902015516 71 0.0 1.0 0.24 0.26 0.26 94 1015.2
20260902014517 71 0.0 2.0 0.25 0.26 0.26 94 1015.4